Вернуться в каталог

STARLINK-32088

АктивенСвязьVLEO
NORAD 59693·PAYLOAD·🇺🇸 United States

Запущен May 8, 2024 с Cape Canaveral Space Force Station

Loading…

Ближайшие Пролёты (ближайшие 24 часа)

TLE

СвежийSource: CelesTrak SupGP

Эпоха: Sep 15, 2026, 02:31 UTC

1 59693C 24086M   26258.10534722 -.00018525  00000+0 -67081-3 0  2584
2 59693  43.0004  62.6255 0001486 270.7254 249.5030 15.27596356    10

Отслеживайте STARLINK-32088 в реальном времени с AllMySat

Download on the App Store